GW3780 Weather Reports


time (UTC)temp
C
wind
direction
speed
KPH
gust
KPH
rain 1hr
cm
rain 24hr
cm
rain mn
cm
humidity
%
barometer
mb
20260507125033 13 75 1.6 3.2 0.00 0.05 0.05 88 1013.2
20260507124529 13 315 1.6 3.2 0.00 0.05 0.05 89 1013.1
20260507124027 13 317 3.2 4.8 0.00 0.05 0.05 89 1013.3
20260507123525 13 277 4.8 4.8 0.00 0.05 0.05 89 1013.1
20260507123021 13 341 1.6 4.8 0.00 0.05 0.05 89 1013.3
20260507122516 13 327 1.6 6.4 0.00 0.05 0.05 89 1013.2
20260507122013 13 38 3.2 3.2 0.00 0.05 0.05 89 1013.1
20260507121508 13 13 0.0 3.2 0.00 0.05 0.05 89 1013.2
20260507121004 13 264 1.6 6.4 0.00 0.05 0.05 89 1013.2
20260507120501 13 337 4.8 4.8 0.00 0.05 0.05 89 1012.9
20260507115957 13 67 0.0 3.2 0.00 0.05 0.05 89 1013.0
20260507115454 13 248 0.0 6.4 0.00 0.05 0.05 89 1013.3
20260507114949 13 318 4.8 8.0 0.00 0.05 0.05 88 1013.5
20260507114446 13 281 3.2 6.4 0.00 0.05 0.05 88 1013.3
20260507113943 13 304 0.0 3.2 0.00 0.05 0.05 88 1013.3
20260507113440 13 228 0.0 4.8 0.00 0.05 0.05 88 1013.4
20260507112938 13 296 0.0 4.8 0.00 0.05 0.05 88 1012.9
20260507112435 13 334 6.4 8.0 0.00 0.05 0.05 88 1013.1
20260507111932 13 72 0.0 3.2 0.00 0.05 0.05 87 1012.6
20260507111429 13 300 3.2 6.4 0.00 0.05 0.05 87 1012.6
20260507110925 13 184 0.0 4.8 0.00 0.05 0.05 87 1012.8
20260507110421 13 311 0.0 4.8 0.00 0.05 0.05 87 1012.9
20260507105918 13 25 3.2 3.2 0.00 0.05 0.05 87 1012.9
20260507105415 13 332 4.8 4.8 0.00 0.05 0.05 86 1012.9
20260507104912 13 275 0.0 6.4 0.00 0.05 0.05 85 1012.5
20260507104409 13 11 4.8 6.4 0.00 0.05 0.05 84 1012.6
20260507103904 13 256 0.0 4.8 0.00 0.05 0.05 85 1012.4
20260507103402 13 348 0.0 6.4 0.00 0.05 0.05 84 1012.5
20260507102857 13 334 3.2 6.4 0.00 0.05 0.05 84 1012.5
20260507102354 13 331 3.2 6.4 0.00 0.05 0.05 85 1012.1
20260507101850 13 304 3.2 4.8 0.00 0.05 0.05 85 1011.7
20260507101345 13 290 3.2 4.8 0.00 0.05 0.05 85 1011.9
20260507100842 13 334 3.2 6.4 0.00 0.05 0.05 86 1012.0
20260507100340 13 7 1.6 3.2 0.00 0.05 0.05 87 1012.2
20260507095838 13 20 1.6 6.4 0.00 0.05 0.05 87 1012.4
20260507095334 13 27 3.2 3.2 0.00 0.05 0.05 88 1012.4
20260507094832 13 230 1.6 4.8 0.00 0.05 0.05 88 1012.7
20260507094328 13 162 0.0 4.8 0.00 0.05 0.05 88 1012.2
20260507093825 13 19 3.2 4.8 0.00 0.05 0.05 89 1012.6
20260507093324 13 304 3.2 3.2 0.00 0.05 0.05 91 1012.4
20260507092821 13 326 1.6 4.8 0.00 0.05 0.05 91 1012.4
20260507092318 13 16 0.0 4.8 0.00 0.05 0.05 92 1012.4
20260507091814 13 116 1.6 8.0 0.00 0.05 0.05 92 1011.9
20260507091310 13 72 3.2 3.2 0.00 0.05 0.05 94 1012.1
20260507090805 13 302 3.2 4.8 0.05 0.05 0.05 94 1012.1
20260507090302 13 345 1.6 4.8 0.00 0.05 0.05 93 1012.3
20260507085759 13 352 1.6 9.7 0.00 0.05 0.05 93 1012.4
20260507085256 14 285 3.2 3.2 0.13 0.05 0.05 93 1012.0
20260507084754 14 7 3.2 4.8 0.05 0.03 0.03 93 1012.2
20260507084249 14 286 1.6 6.4 0.00 0.03 0.03 93 1012.2
20260507083747 15 125 0.0 4.8 0.05 0.03 0.03 93 1011.8
20260507083244 15 3 0.0 6.4 0.05 0.03 0.03 93 1012.1
20260507082740 15 140 3.2 6.4 0.00 0.00 0.00 93 1012.0
20260507082236 15 76 4.8 6.4 0.00 0.00 0.00 93 1011.9
20260507081733 15 126 1.6 6.4 0.00 0.00 0.00 94 1012.0
20260507081229 15 341 1.6 4.8 0.00 0.00 0.00 95 1012.0
20260507080725 16 353 3.2 6.4 0.00 0.00 0.00 95 1011.8
20260507080221 16 8 3.2 4.8 0.00 0.00 0.00 95 1011.8
20260507075717 17 306 4.8 6.4 0.00 0.00 0.00 96 1011.3
20260507075214 17 334 3.2 4.8 0.00 0.00 0.00 96 1011.1
20260507074710 17 321 0.0 4.8 0.00 0.00 0.00 97 1010.8
20260507074209 18 193 0.0 4.8 0.00 0.00 0.00 97 1011.0
20260507073704 18 40 0.0 4.8 0.00 0.00 0.00 96 1010.9
20260507073201 18 44 0.0 3.2 0.00 0.00 0.00 96 1010.9
20260507072659 18 324 0.0 3.2 0.00 0.00 0.00 96 1010.9
20260507072156 18 315 1.6 3.2 0.00 0.00 0.00 96 1011.0
20260507071654 18 89 0.0 3.2 0.00 0.00 0.00 96 1011.1
20260507071149 18 354 0.0 0.0 0.00 0.00 0.00 96 1011.0
20260507070647 18 287 0.0 1.6 0.00 0.00 0.00 96 1011.0
20260507070143 18 339 0.0 3.2 0.00 0.00 0.00 96 1011.1
20260507065640 18 315 0.0 3.2 0.00 0.00 0.00 95 1011.0
20260507065137 18 7 0.0 3.2 0.00 0.00 0.00 95 1010.6
20260507064634 18 321 0.0 1.6 0.00 0.00 0.00 94 1010.6
20260507064133 18 305 1.6 1.6 0.00 0.00 0.00 94 1010.4
20260507063630 19 335 0.0 1.6 0.05 0.00 0.00 93 1010.4
20260507063127 19 230 0.0 1.6 0.05 0.00 0.00 93 1010.4
20260507062624 19 326 0.0 1.6 0.00 0.00 0.00 92 1010.3
20260507062121 19 317 0.0 1.6 0.00 0.00 0.00 91 1010.2
20260507061619 19 235 0.0 0.0 0.00 0.00 0.00 91 1009.9
20260507061117 19 193 0.0 3.2 0.00 0.00 0.00 91 1009.8
20260507060615 19 314 0.0 1.6 0.00 0.00 0.00 91 1009.8
20260507060111 19 0 0.0 1.6 0.00 0.00 0.00 91 1009.8
20260507055606 19 209 0.0 3.2 0.00 0.00 0.00 92 1010.1
20260507055103 19 211 0.0 1.6 0.00 0.00 0.00 92 1010.2
20260507054558 20 169 1.6 3.2 0.00 0.00 0.00 90 1010.2
20260507054056 20 233 0.0 3.2 0.00 0.00 0.00 89 1009.8
20260507053554 20 235 0.0 3.2 0.00 0.00 0.00 89 1009.9
20260507053052 20 256 0.0 3.2 0.00 0.00 0.00 89 1010.3
20260507052549 20 200 0.0 3.2 0.00 0.00 0.00 89 1010.0
20260507052046 20 213 0.0 3.2 0.00 0.00 0.00 88 1010.3
20260507051544 20 230 0.0 1.6 0.00 0.00 0.00 88 1010.4
20260507051040 20 180 0.0 3.2 0.00 0.00 0.00 88 1010.4
20260507050537 20 224 3.2 3.2 0.00 0.00 0.00 88 1010.9
20260507050033 20 238 3.2 6.4 0.00 0.00 0.00 88 1010.9
20260507045530 20 269 0.0 4.8 0.00 0.00 0.00 88 1011.0
20260507045027 20 286 0.0 3.2 0.00 0.00 0.00 89 1011.1
20260507044524 20 267 0.0 3.2 0.00 0.00 0.00 89 1011.1
20260507044021 20 200 3.2 3.2 0.00 0.00 0.00 89 1011.2
20260507043517 20 242 0.0 3.2 0.00 0.00 0.00 89 1011.1
20260507043014 20 217 0.0 3.2 0.00 0.00 0.00 89 1011.5
20260507042510 20 277 0.0 3.2 0.00 0.00 0.00 89 1011.6
20260507042006 20 122 0.0 3.2 0.00 0.00 0.00 89 1011.5
20260507041503 20 214 0.0 3.2 0.00 0.00 0.00 89 1011.3
20260507041000 20 255 0.0 3.2 0.00 0.00 0.00 89 1010.9
20260507040455 20 309 0.0 1.6 0.00 0.00 0.00 89 1010.7
20260507035951 20 269 0.0 3.2 0.00 0.23 0.23 88 1011.3
20260507035448 20 242 0.0 3.2 0.00 0.23 0.23 88 1011.1
20260507034945 20 269 0.0 3.2 0.00 0.23 0.23 88 1011.1
20260507034442 20 155 0.0 6.4 0.00 0.23 0.23 88 1011.5
20260507033940 20 205 0.0 4.8 0.00 0.23 0.23 88 1011.6
20260507033438 20 52 0.0 3.2 0.00 0.23 0.23 88 1011.5
20260507032934 20 244 1.6 3.2 0.00 0.23 0.23 88 1011.1
20260507032431 20 254 1.6 3.2 0.00 0.23 0.23 88 1011.0
20260507031927 20 0 0.0 4.8 0.00 0.23 0.23 87 1011.1
20260507031426 20 250 1.6 3.2 0.00 0.23 0.23 87 1010.8
20260507030921 20 302 0.0 6.4 0.00 0.23 0.23 87 1010.9
20260507030418 20 301 0.0 3.2 0.00 0.23 0.23 87 1010.9
20260507025915 20 264 1.6 3.2 0.00 0.23 0.23 87 1010.9
20260507025412 20 249 3.2 3.2 0.00 0.23 0.23 87 1010.6
20260507024910 20 235 1.6 3.2 0.00 0.23 0.23 87 1010.4
20260507024407 20 231 4.8 6.4 0.00 0.23 0.23 87 1010.6
20260507023903 20 189 0.0 4.8 0.00 0.23 0.23 87 1010.7
20260507023400 20 224 0.0 6.4 0.00 0.23 0.23 87 1010.7
20260507022857 20 206 4.8 4.8 0.00 0.23 0.23 87 1011.0
20260507022354 20 268 0.0 4.8 0.00 0.23 0.23 87 1010.8
20260507021850 20 175 0.0 3.2 0.00 0.23 0.23 87 1011.1
20260507021345 20 224 4.8 6.4 0.00 0.23 0.23 87 1010.9
20260507020843 20 251 3.2 3.2 0.00 0.23 0.23 87 1011.2
20260507020339 20 278 1.6 3.2 0.00 0.23 0.23 87 1011.2
20260507015836 20 306 3.2 3.2 0.00 0.23 0.23 87 1011.3
20260507015335 20 269 0.0 3.2 0.00 0.23 0.23 87 1011.3
20260507014831 20 212 0.0 3.2 0.00 0.23 0.23 87 1011.5
20260507014327 20 231 0.0 4.8 0.00 0.23 0.23 87 1011.4
20260507013824 20 197 1.6 3.2 0.00 0.23 0.23 87 1011.1
20260507013321 20 205 0.0 3.2 0.00 0.23 0.23 87 1011.5
20260507012819 20 203 1.6 3.2 0.00 0.23 0.23 87 1011.3
20260507012314 20 220 0.0 3.2 0.00 0.23 0.23 86 1011.5
20260507011806 20 239 3.2 4.8 0.00 0.23 0.23 86 1011.2
20260507011303 20 269 1.6 3.2 0.00 0.23 0.23 87 1011.4
20260507010802 20 249 0.0 1.6 0.00 0.23 0.23 87 1011.4
20260507010258 20 260 0.0 1.6 0.00 0.23 0.23 86 1011.3
20260507005756 20 247 3.2 4.8 0.00 0.23 0.23 86 1010.9
20260507005252 20 228 0.0 3.2 0.00 0.23 0.23 86 1010.7
20260507004749 20 266 0.0 1.6 0.00 0.23 0.23 86 1011.1
20260507004247 20 221 4.8 4.8 0.00 0.23 0.23 86 1011.1
20260507003743 20 200 1.6 4.8 0.00 0.23 0.23 85 1011.0
20260507003238 20 182 0.0 3.2 0.00 0.23 0.23 85 1011.3
20260507002734 20 230 4.8 6.4 0.00 0.23 0.23 85 1011.4
20260507002230 20 263 4.8 4.8 0.00 0.23 0.23 85 1011.1
20260507001727 20 240 0.0 3.2 0.00 0.23 0.23 84 1011.3
20260507001225 20 194 3.2 8.0 0.00 0.23 0.23 84 1011.2
20260507000721 20 221 3.2 3.2 0.00 0.23 0.23 84 1011.2
20260507000216 20 157 1.6 6.4 0.00 0.23 0.23 83 1011.3
20260506235714 20 283 0.0 3.2 0.00 0.23 0.23 84 1011.1
20260506235209 20 204 1.6 3.2 0.00 0.23 0.23 83 1011.0
20260506234706 20 123 0.0 3.2 0.00 0.23 0.23 82 1011.2
20260506234204 20 208 4.8 4.8 0.00 0.23 0.23 82 1010.9
20260506233701 21 269 0.0 3.2 0.00 0.23 0.23 82 1010.8
20260506233157 21 245 1.6 6.4 0.00 0.23 0.23 81 1011.1
20260506232654 21 151 0.0 3.2 0.00 0.23 0.23 81 1010.8
20260506232149 21 216 3.2 6.4 0.00 0.23 0.23 81 1010.8
20260506231646 21 221 0.0 4.8 0.00 0.23 0.23 80 1010.7
20260506231145 21 252 1.6 6.4 0.00 0.23 0.23 80 1010.9
20260506230641 21 189 0.0 4.8 0.00 0.23 0.23 79 1010.7
20260506230138 21 216 3.2 4.8 0.00 0.23 0.23 79 1010.6
20260506225635 21 220 1.6 6.4 0.00 0.23 0.23 79 1010.8
20260506225131 21 148 3.2 8.0 0.00 0.23 0.23 79 1010.8
20260506224628 21 173 3.2 6.4 0.00 0.23 0.23 79 1010.7
20260506224124 21 230 0.0 4.8 0.00 0.23 0.23 80 1011.1
20260506223621 21 206 0.0 3.2 0.00 0.23 0.23 80 1010.9
20260506223117 21 246 3.2 6.4 0.00 0.23 0.23 79 1010.8
20260506222614 21 230 0.0 8.0 0.00 0.23 0.23 80 1011.0
20260506222110 21 277 3.2 3.2 0.00 0.23 0.23 80 1010.9
20260506221608 21 254 1.6 4.8 0.00 0.23 0.23 79 1011.1
20260506221106 21 226 3.2 9.7 0.00 0.23 0.23 78 1010.9
20260506220602 21 208 3.2 6.4 0.00 0.23 0.23 79 1011.1
20260506220057 21 279 4.8 8.0 0.00 0.23 0.23 79 1010.7
20260506215554 21 240 3.2 4.8 0.00 0.23 0.23 79 1010.6
20260506215050 21 269 0.0 4.8 0.00 0.23 0.23 79 1011.0
20260506214547 21 190 6.4 6.4 0.00 0.23 0.23 79 1010.6
20260506214044 21 211 3.2 8.0 0.00 0.23 0.23 79 1010.9
20260506213543 21 226 3.2 9.7 0.00 0.23 0.23 78 1010.7
20260506213040 21 241 3.2 8.0 0.00 0.23 0.23 79 1010.7
20260506212536 21 220 4.8 6.4 0.00 0.23 0.23 79 1010.7
20260506212031 21 220 3.2 9.7 0.00 0.23 0.23 79 1011.1
20260506211527 21 239 4.8 14.5 0.00 0.23 0.23 79 1010.9
20260506211024 21 272 3.2 9.7 0.00 0.23 0.23 80 1010.9
20260506210521 21 208 3.2 9.7 0.00 0.23 0.23 81 1011.0
20260506210017 21 229 3.2 4.8 0.00 0.23 0.23 81 1011.1
20260506205514 21 258 3.2 9.7 0.00 0.23 0.23 81 1010.9
20260506205009 21 265 1.6 6.4 0.00 0.23 0.23 82 1011.0
20260506204508 21 211 3.2 6.4 0.00 0.23 0.23 82 1010.8
20260506204004 21 212 3.2 8.0 0.00 0.23 0.23 82 1011.1
20260506203502 20 252 3.2 3.2 0.00 0.23 0.23 83 1011.1
20260506202958 20 279 1.6 3.2 0.00 0.23 0.23 84 1010.7
20260506202456 20 211 3.2 4.8 0.00 0.23 0.23 84 1010.9
20260506201946 20 212 0.0 1.6 0.00 0.23 0.23 86 1010.8
20260506201444 20 191 1.6 1.6 0.00 0.23 0.23 86 1011.3
20260506200941 20 290 0.0 4.8 0.00 0.23 0.23 86 1011.3
20260506200437 20 278 0.0 3.2 0.00 0.23 0.23 86 1011.4
20260506195933 20 72 0.0 1.6 0.00 0.23 0.23 87 1011.1
20260506195430 20 235 0.0 4.8 0.00 0.23 0.23 86 1011.2
20260506194927 20 204 3.2 3.2 0.00 0.23 0.23 86 1010.7
20260506194424 19 290 0.0 4.8 0.00 0.23 0.23 87 1010.8
20260506193921 19 264 0.0 4.8 0.00 0.23 0.23 86 1010.6
20260506193419 19 221 0.0 8.0 0.00 0.23 0.23 86 1010.5
20260506192915 19 238 1.6 3.2 0.00 0.23 0.23 87 1010.6
20260506192412 19 201 0.0 4.8 0.00 0.23 0.23 87 1010.7
20260506191909 19 173 3.2 6.4 0.00 0.23 0.23 87 1010.8
20260506191405 18 308 3.2 4.8 0.00 0.23 0.23 88 1011.1
20260506190902 18 198 3.2 4.8 0.00 0.23 0.23 88 1011.1
20260506190358 18 150 0.0 4.8 0.00 0.23 0.23 89 1011.4
20260506185855 18 340 3.2 4.8 0.00 0.23 0.23 89 1011.4
20260506185352 18 216 0.0 8.0 0.00 0.23 0.23 89 1011.7
20260506184849 18 221 8.0 12.9 0.00 0.23 0.23 89 1011.6
20260506184346 18 301 3.2 6.4 0.00 0.23 0.23 90 1011.6
20260506183844 18 177 0.0 4.8 0.00 0.23 0.23 90 1011.6
20260506183339 18 214 4.8 4.8 0.00 0.23 0.23 90 1011.8
20260506182836 18 293 3.2 4.8 0.00 0.23 0.23 91 1011.6
20260506182333 18 255 3.2 9.7 0.00 0.23 0.23 90 1011.6
20260506181831 18 200 3.2 11.3 0.00 0.23 0.23 88 1011.6
20260506181329 18 211 8.0 16.1 0.00 0.23 0.23 88 1012.0
20260506180826 18 139 4.8 9.7 0.00 0.23 0.23 88 1012.1
20260506180321 18 300 1.6 8.0 0.00 0.23 0.23 88 1012.3
20260506175818 18 242 3.2 4.8 0.00 0.23 0.23 88 1012.4
20260506175315 18 180 0.0 4.8 0.00 0.23 0.23 89 1012.2
20260506174812 18 186 3.2 6.4 0.00 0.23 0.23 89 1012.3
20260506174309 18 144 4.8 8.0 0.00 0.23 0.23 89 1012.5
20260506173807 18 248 3.2 8.0 0.00 0.23 0.23 90 1012.3
20260506173304 18 194 3.2 9.7 0.00 0.23 0.23 89 1012.3
20260506172801 18 229 4.8 6.4 0.00 0.23 0.23 91 1012.1
20260506172257 17 248 3.2 9.7 0.00 0.23 0.23 91 1012.1
20260506171755 17 218 3.2 4.8 0.00 0.23 0.23 93 1012.1
20260506171251 17 238 6.4 6.4 0.00 0.23 0.23 92 1012.1
20260506170749 17 228 3.2 6.4 0.00 0.23 0.23 92 1012.0
20260506170245 17 203 3.2 12.9 0.00 0.23 0.23 92 1012.2
20260506165744 17 126 4.8 6.4 0.00 0.23 0.23 93 1012.6
20260506165241 17 238 0.0 8.0 0.00 0.23 0.23 93 1012.9
20260506164738 17 313 1.6 8.0 0.00 0.23 0.23 94 1012.4
20260506164235 17 269 0.0 3.2 0.00 0.23 0.23 94 1012.6
20260506163731 17 197 6.4 6.4 0.05 0.23 0.23 93 1012.9
20260506163226 17 202 3.2 6.4 0.00 0.20 0.20 93 1013.0
20260506162723 17 151 4.8 8.0 0.00 0.20 0.20 93 1012.9
20260506162220 17 207 1.6 6.4 0.00 0.20 0.20 94 1012.8
20260506161718 17 269 0.0 6.4 0.05 0.20 0.20 94 1012.5
20260506161215 17 269 0.0 3.2 0.05 0.20 0.20 95 1012.7
20260506160713 16 304 0.0 3.2 0.05 0.20 0.20 95 1012.5
20260506160209 16 185 4.8 9.7 0.05 0.20 0.20 95 1012.6
20260506155707 16 227 3.2 4.8 0.05 0.20 0.20 95 1012.7
20260506155204 16 264 3.2 6.4 0.00 0.18 0.18 95 1012.6
20260506153306 16 240 1.6 3.2 0.00 0.18 0.18 95 1012.8
20260506152803 16 243 3.2 8.0 0.00 0.18 0.18 95 1013.0
20260506152300 16 269 0.0 3.2 0.05 0.18 0.18 96 1013.3
20260506151759 16 286 1.6 3.2 0.05 0.18 0.18 96 1013.2
20260506151255 16 310 0.0 6.4 0.00 0.18 0.18 96 1013.1
20260506150751 16 7 0.0 3.2 0.00 0.18 0.18 96 1013.2
20260506150249 16 283 0.0 3.2 0.00 0.18 0.18 97 1013.5
20260506145746 16 198 3.2 4.8 0.00 0.18 0.18 97 1013.7
20260506145242 16 237 1.6 6.4 0.00 0.18 0.18 97 1013.5
20260506144739 16 186 1.6 4.8 0.00 0.18 0.18 97 1013.5
20260506144236 16 255 0.0 6.4 0.05 0.18 0.18 97 1013.6
20260506143734 15 269 0.0 4.8 0.05 0.18 0.18 97 1013.6
20260506143231 16 259 3.2 3.2 0.13 0.18 0.18 97 1013.6
20260506142730 16 263 1.6 3.2 0.53 0.18 0.18 96 1013.7
20260506142227 16 144 3.2 6.4 0.53 0.15 0.15 94 1014.0
20260506141725 16 198 6.4 6.4 0.36 0.10 0.10 93 1013.5
20260506141224 16 207 3.2 4.8 0.18 0.05 0.05 91 1013.5
20260506140721 16 242 4.8 6.4 0.05 0.03 0.03 89 1013.6
20260506140217 16 188 1.6 8.0 0.05 0.03 0.03 88 1013.5
20260506135714 17 232 3.2 8.0 0.05 0.03 0.03 87 1013.3
20260506135210 17 277 0.0 6.4 0.05 0.00 0.00 86 1013.3
20260506134707 17 212 9.7 9.7 0.00 0.00 0.00 82 1013.5
20260506134203 17 132 0.0 8.0 0.00 0.00 0.00 79 1013.4
20260506133701 18 289 3.2 8.0 0.00 0.00 0.00 77 1013.4
20260506133157 18 171 6.4 8.0 0.00 0.00 0.00 76 1013.2
20260506132655 18 164 1.6 4.8 0.00 0.00 0.00 77 1013.2
20260506132151 18 199 3.2 6.4 0.00 0.00 0.00 77 1013.2
20260506131649 18 264 4.8 6.4 0.00 0.00 0.00 77 1013.4
20260506131145 18 308 1.6 3.2 0.00 0.00 0.00 76 1013.1
20260506130642 18 282 4.8 6.4 0.00 0.00 0.00 76 1013.3
20260506130140 18 256 1.6 8.0 0.00 0.00 0.00 77 1013.2
20260506125638 18 138 4.8 6.4 0.00 0.00 0.00 78 1013.0